This is the latest recevied weather packets stored in our database for station/object PY3MO-13. If no packets are shown the sender has not sent any weather packets the latest 10 day(s).
| Time | Temp. | Humidity | Pressure | Rain* | Wind** | Luminosity | Snow |
|---|---|---|---|---|---|---|---|
| 1777693370 | 15.56° C | 99% | 1015.3 hPa | 6.86 mm | - | - | - |
| 1777693072 | 15.56° C | 99% | 1015.3 hPa | 6.35 mm | - | - | - |
| 1777692771 | 15.56° C | 99% | 1015.2 hPa | 6.1 mm | - | - | - |
| 1777692471 | 15.56° C | 99% | 1015.5 hPa | 5.84 mm | - | - | - |
| 1777692171 | 15.56° C | 99% | 1015.9 hPa | 5.33 mm | - | - | - |
| 1777691871 | 15.56° C | 99% | 1016 hPa | 5.08 mm | - | - | - |
| 1777691571 | 15.56° C | 99% | 1016.3 hPa | 5.08 mm | - | - | - |
| 1777691271 | 15.56° C | 99% | 1016.3 hPa | 5.59 mm | - | - | - |
| 1777690970 | 15.56° C | 99% | 1016.3 hPa | 6.1 mm | - | - | - |
| 1777690672 | 15.56° C | 99% | 1016.1 hPa | 6.35 mm | - | - | - |
| 1777690372 | 15.56° C | 99% | 1016 hPa | 7.11 mm | - | - | - |
| 1777690071 | 15.56° C | 99% | 1015.7 hPa | 8.64 mm | - | - | - |
| 1777689771 | 15.56° C | 99% | 1015.4 hPa | 14.48 mm | - | - | - |
| 1777689472 | 15.56° C | 99% | 1016.1 hPa | 18.29 mm | - | - | - |
| 1777689172 | 15.56° C | 99% | 1016.1 hPa | 20.57 mm | - | - | - |
| 1777688870 | 15.56° C | 99% | 1015.6 hPa | 20.57 mm | - | - | - |
| 1777688572 | 15.56° C | 99% | 1015.7 hPa | 20.32 mm | - | - | - |
| 1777688272 | 15.56° C | 99% | 1015.3 hPa | 20.57 mm | - | - | - |
| 1777687971 | 15.56° C | 99% | 1016.3 hPa | 20.32 mm | - | - | - |
| 1777687670 | 15.56° C | 99% | 1016.6 hPa | 19.05 mm | - | - | - |
| 1777687372 | 15.56° C | 99% | 1017.4 hPa | 17.53 mm | - | - | - |
| 1777687072 | 15.56° C | 99% | 1017.4 hPa | 16.26 mm | - | - | - |
| 1777686771 | 15.56° C | 99% | 1016.1 hPa | 15.49 mm | - | - | - |
| 1777686471 | 15.56° C | 99% | 1016.9 hPa | 12.95 mm | - | - | - |
| 1777686172 | 16.11° C | 98% | 1017.7 hPa | 7.62 mm | - | - | - |
* Rain latest hour (hover to see other rain measurements)
** Current wind speed in m/s (hover to see current wind gust speed)